Hourly Data Report for July 18, 2021

IQALUIT CLIMATE
NUNAVUT
Current Station Operator: ECCC - MSC

63°44'50.000" N
68°32'40.000" W
33.50 m
2402592
71321
XFB

Download Data

Hourly Data (July 2021)
Hourly Data Report for July 18, 2021
TIME
LST
Temp Definition
°C
Dew Point Definition
°C
Rel Hum Definition
%
Precip. Amount Definition
mm

Wind Dir Definition
10's deg

Wind Spd Definition
km/h
Visibility Definition
km
Stn Press Definition
kPa
Hmdx Definition


Wind Chill Definition


Weather Definition


00:00 8.4 4.4 76 0.0 18 25   100.04     LegendNANA
01:00 7.6 3.3 74 0.0 16 18   100.02     LegendNANA
02:00 6.7 2.9 77 0.0 18 24   100.09     LegendNANA
03:00 5.4 3.3 87 0.0 15 19   100.10     LegendNANA
04:00 6.2 4.0 86 0.0 18 8   100.08     LegendNANA
05:00 6.9 2.6 74 0.0 25 12   100.10     LegendNANA
06:00 6.6 1.8 71 0.0 26 20   100.11     LegendNANA
07:00 6.5 0.9 67 0.0 23 18   100.10     LegendNANA
08:00 7.0 0.8 64 0.0 21 11   100.09     LegendNANA
09:00 7.9 0.6 60 0.0 21 15   100.06     LegendNANA
10:00 8.5 1.1 60 0.0 22 16   100.02     LegendNANA
11:00 7.9 0.8 61 0.0 24 22   100.00     LegendNANA
12:00 8.0 1.0 61 0.0 24 20   99.98     LegendNANA
13:00 8.0 0.7 60 0.0 25 20   99.96     LegendNANA
14:00 8.1 1.6 64 0.0 24 20   99.95     LegendNANA
15:00 7.4 1.1 64 0.0 25 22   99.94     LegendNANA
16:00 7.3 1.4 66 0.0 23 12   99.95     LegendNANA
17:00 7.4 1.4 65 0.0 29 15   99.94     LegendNANA
18:00 7.1 1.9 70 0.0 25 12   99.93     LegendNANA
19:00 6.7 1.3 68 0.0 24 14   99.91     LegendNANA
20:00 6.1 1.6 73 0.0 25 16   99.90     LegendNANA
21:00 5.7 1.5 74 0.0 24 15   99.88     LegendNANA
22:00 5.8 1.6 74 0.0 24 7   99.88     LegendNANA
23:00 5.7 1.6 75 0.0 24 12   99.85     LegendNANA

Notes on Data Quality.

Legend

  • E = Estimated
  • M = Missing
  • NA = Not Available*
  • [empty] = Indicates an unobserved value
Date modified: